FW6247 Weather Reports


Display with metric or nautical units.
time (UTC)temp
F
wind
direction
speed
MPH
gust
MPH
rain 1hr
in
rain 24hr
in
rain mn
in
humidity
%
barometer
mb
20260831203143 78 43 3.0 10.0 0.00 0.00 0.00 30 1013.5
20260831201534 79 47 3.0 10.0 0.00 0.00 0.00 30 1013.8
20260831194534 77 9 2.0 6.0 0.00 0.00 0.00 33 1014.2
20260831193031 77 13 2.0 9.0 0.00 0.00 0.00 34 1014.4
20260831190033 73 34 3.0 8.0 0.00 0.00 0.00 38 1015.0
20260831184530 71 23 3.0 11.0 0.00 0.00 0.00 41 1015.3
20260831183031 70 21 2.0 7.0 0.00 0.00 0.00 44 1015.5
20260831181535 69 356 0.0 5.0 0.00 0.00 0.00 47 1015.8
20260831180031 69 2 0.0 6.0 0.00 0.00 0.00 47 1016.0
20260831174613 68 5 1.0 4.0 0.00 0.00 0.00 48 1016.1
20260831173031 68 359 1.0 7.0 0.00 0.00 0.00 49 1016.2
20260831170038 65 354 1.0 6.0 0.00 0.00 0.00 53 1016.4
20260831164538 65 357 1.0 7.0 0.00 0.00 0.00 53 1016.4
20260831163030 66 1 0.0 4.0 0.00 0.00 0.00 53 1016.6
20260831161530 67 334 0.0 2.0 0.00 0.00 0.00 54 1016.7
20260831160038 67 254 0.0 0.0 0.00 0.00 0.00 58 1016.7
20260831154538 65 157 0.0 0.0 0.00 0.00 0.00 63 1016.8
20260831153037 62 157 0.0 0.0 0.00 0.00 0.00 70 1016.8
20260831151536 58 157 1.0 3.0 0.00 0.00 0.00 74 1016.9
20260831150039 54 157 1.0 4.0 0.00 0.00 0.00 77 1016.6
20260831144536 50 159 3.0 5.0 0.00 0.00 0.00 79 1016.5
20260831143037 48 162 3.0 7.0 0.00 0.00 0.00 80 1016.4
20260831141538 48 157 0.0 1.0 0.00 0.00 0.00 79 1016.3
20260831140037 48 161 2.0 5.0 0.00 0.00 0.00 78 1016.3
20260831134556 48 158 1.0 5.0 0.00 0.00 0.00 77 1016.3
20260831133038 48 165 1.0 4.0 0.00 0.00 0.00 77 1016.3
20260831131537 49 161 3.0 5.0 0.00 0.00 0.00 75 1016.3
20260831124536 50 162 5.0 7.0 0.00 0.00 0.00 75 1016.3
20260831123036 50 163 4.0 6.0 0.00 0.00 0.00 75 1016.3
20260831114537 50 158 3.0 6.0 0.00 0.00 0.00 74 1016.4
20260831113039 49 160 4.0 7.0 0.00 0.00 0.00 75 1016.3
20260831111537 50 156 2.0 5.0 0.00 0.00 0.00 73 1016.3
20260831104537 51 158 4.0 7.0 0.00 0.00 0.00 72 1016.3
20260831101538 51 157 3.0 6.0 0.00 0.00 0.00 70 1016.4
20260831100036 52 166 4.0 7.0 0.00 0.00 0.00 69 1016.5
20260831094538 53 165 4.0 7.0 0.00 0.00 0.00 68 1016.7
20260831093036 53 163 4.0 7.0 0.00 0.00 0.00 68 1016.8
20260831091538 53 167 5.0 7.0 0.00 0.00 0.00 68 1016.8
20260831090038 53 162 5.0 8.0 0.00 0.00 0.00 68 1016.9
20260831084538 53 163 5.0 7.0 0.00 0.00 0.00 67 1017.1
20260831081540 54 164 5.0 9.0 0.00 0.00 0.00 67 1017.1
20260831080035 54 164 5.0 7.0 0.00 0.00 0.00 67 1017.2
20260831074539 54 166 5.0 7.0 0.00 0.00 0.00 67 1017.1
20260831073036 55 161 5.0 8.0 0.00 0.00 0.00 67 1017.2
20260831071537 55 162 5.0 7.0 0.00 0.00 0.00 67 1017.2
20260831070037 55 161 4.0 7.0 0.00 0.00 0.00 67 1017.3
20260831063036 55 160 4.0 6.0 0.00 0.00 0.00 67 1017.4
20260831061537 55 165 5.0 7.0 0.00 0.00 0.00 69 1017.6
20260831060038 54 163 4.0 6.0 0.00 0.00 0.00 72 1017.6
20260831054536 53 159 3.0 5.0 0.00 0.00 0.00 73 1017.6
20260831053037 54 176 2.0 4.0 0.00 0.00 0.00 71 1017.6
20260831051530 54 166 1.0 3.0 0.00 0.00 0.00 71 1017.7
20260831050036 55 112 0.0 0.0 0.00 0.00 0.00 70 1017.7
20260831044537 55 112 0.0 0.0 0.00 0.00 0.00 68 1017.7
20260831043036 57 112 0.0 0.0 0.00 0.00 0.00 66 1017.7
20260831041542 58 112 0.0 0.0 0.00 0.00 0.00 62 1017.7
20260831040037 59 112 0.0 0.0 0.00 0.00 0.00 61 1017.6
20260831034537 60 3 0.0 3.0 0.00 0.00 0.00 57 1017.5
20260831031537 64 295 3.0 4.0 0.00 0.00 0.00 48 1017.4
20260831030029 65 300 3.0 8.0 0.00 0.00 0.00 47 1017.3
20260831024537 66 293 4.0 8.0 0.00 0.00 0.00 45 1017.2
20260831023031 68 294 3.0 6.0 0.00 0.00 0.00 43 1017.1
20260831021537 70 301 3.0 8.0 0.00 0.00 0.00 41 1017.2
20260831020036 72 302 4.0 11.0 0.00 0.00 0.00 39 1017.2
20260831014536 73 304 3.0 10.0 0.00 0.00 0.00 37 1017.3
20260831011530 75 310 3.0 9.0 0.00 0.00 0.00 35 1017.2
20260831010036 76 313 3.0 11.0 0.00 0.00 0.00 34 1017.4
20260831003035 76 325 2.0 11.0 0.00 0.00 0.00 34 1017.4
20260831001530 76 314 2.0 8.0 0.00 0.00 0.00 35 1017.5
20260831000037 75 303 3.0 9.0 0.00 0.00 0.00 36 1017.5
20260830234536 75 291 3.0 10.0 0.00 0.00 0.00 37 1017.7
20260830233030 75 321 2.0 8.0 0.00 0.00 0.00 37 1017.8
20260830231532 75 300 4.0 10.0 0.00 0.00 0.00 37 1017.9
20260830230030 74 321 1.0 10.0 0.00 0.00 0.00 38 1018.1
20260830224533 74 305 2.0 8.0 0.00 0.00 0.00 39 1018.2
20260830223107 73 305 3.0 9.0 0.00 0.00 0.00 39 1018.4
20260830214536 72 316 3.0 11.0 0.00 0.00 0.00 42 1019.1
20260830213035 72 325 2.0 11.0 0.00 0.00 0.00 43 1019.2
20260830211535 71 338 2.0 9.0 0.00 0.00 0.00 44 1019.3
20260830210035 70 326 2.0 14.0 0.00 0.00 0.00 43 1019.3
20260830204537 71 338 2.0 8.0 0.00 0.00 0.00 43 1019.4